Time,TemperatureF,DewpointF,PressureIn,WindDirection,WindDirectionDegrees,WindSpeedMPH,WindSpeedGustMPH,Humidity,HourlyPrecipIn,Conditions,Clouds,dailyrainin,SoftwareType,DateUTC
2013-04-18 00:02:00,36.0,35.0,29.87,ENE,69,4.0,9.0,96,0.01,,,0.03,,2013-04-18 05:02:00,
2013-04-18 00:12:00,36.0,35.0,29.85,ENE,73,5.0,10.0,97,0.01,,,0.03,,2013-04-18 05:12:00,
2013-04-18 00:22:00,36.0,35.0,29.85,ENE,73,5.0,10.0,97,0.01,,,0.03,,2013-04-18 05:22:00,
2013-04-18 00:33:00,36.0,35.0,29.84,East,88,5.0,12.0,97,0.03,,,0.05,,2013-04-18 05:33:00,
2013-04-18 00:42:00,36.0,35.0,29.82,ENE,75,6.0,11.0,97,0.05,,,0.08,,2013-04-18 05:42:00,
2013-04-18 00:52:00,36.0,35.0,29.82,ENE,75,6.0,11.0,97,0.05,,,0.08,,2013-04-18 05:52:00,
2013-04-18 01:02:00,36.0,35.0,29.81,ENE,71,6.0,12.0,97,0.08,,,0.11,,2013-04-18 06:02:00,
2013-04-18 01:12:00,36.0,35.0,29.81,ENE,71,6.0,12.0,97,0.08,,,0.11,,2013-04-18 06:12:00,
2013-04-18 01:22:00,37.0,36.0,29.79,East,82,6.0,12.0,97,0.10,,,0.13,,2013-04-18 06:22:00,
2013-04-18 01:32:00,37.0,36.0,29.74,ENE,67,8.0,14.0,97,0.08,,,0.13,,2013-04-18 06:32:00,
2013-04-18 01:42:00,37.0,36.0,29.75,East,90,7.0,18.0,97,0.05,,,0.13,,2013-04-18 06:42:00,
2013-04-18 01:52:00,37.0,36.0,29.75,East,90,7.0,18.0,97,0.05,,,0.13,,2013-04-18 06:52:00,
2013-04-18 02:02:00,37.0,36.0,29.72,East,88,6.0,14.0,97,0.02,,,0.13,,2013-04-18 07:02:00,
2013-04-18 02:12:00,37.0,36.0,29.70,East,98,7.0,17.0,97,0.00,,,0.13,,2013-04-18 07:12:00,
2013-04-18 02:22:00,37.0,36.0,29.70,East,98,7.0,17.0,97,0.00,,,0.13,,2013-04-18 07:22:00,
2013-04-18 02:32:00,37.0,36.0,29.70,ENE,58,4.0,9.0,97,0.00,,,0.13,,2013-04-18 07:32:00,
2013-04-18 02:42:00,37.0,36.0,29.70,ENE,61,4.0,7.0,97,0.00,,,0.13,,2013-04-18 07:42:00,
2013-04-18 02:52:00,37.0,36.0,29.70,ENE,61,4.0,7.0,97,0.00,,,0.13,,2013-04-18 07:52:00,
2013-04-18 03:02:00,37.0,36.0,29.70,ENE,71,3.0,8.0,97,0.00,,,0.13,,2013-04-18 08:02:00,
2013-04-18 03:12:00,37.0,36.0,29.70,ENE,68,3.0,9.0,97,0.00,,,0.13,,2013-04-18 08:12:00,
2013-04-18 03:22:00,37.0,36.0,29.70,ENE,68,3.0,9.0,97,0.00,,,0.13,,2013-04-18 08:22:00,
2013-04-18 03:32:00,37.0,36.0,29.70,ENE,57,6.0,9.0,97,0.00,,,0.13,,2013-04-18 08:32:00,
2013-04-18 03:42:00,37.0,36.0,29.71,NE,56,2.0,6.0,97,0.00,,,0.13,,2013-04-18 08:42:00,
2013-04-18 03:52:00,37.0,36.0,29.71,NE,56,2.0,6.0,97,0.00,,,0.13,,2013-04-18 08:52:00,
2013-04-18 04:02:00,37.0,36.0,29.72,ENE,59,1.0,6.0,97,0.00,,,0.13,,2013-04-18 09:02:00,
2013-04-18 04:12:00,37.0,36.0,29.70,ENE,65,1.0,6.0,97,0.00,,,0.13,,2013-04-18 09:12:00,
2013-04-18 04:22:00,37.0,36.0,29.70,ENE,65,1.0,6.0,97,0.00,,,0.13,,2013-04-18 09:22:00,
2013-04-18 04:33:00,37.0,36.0,29.69,NE,34,3.0,8.0,98,0.00,,,0.13,,2013-04-18 09:33:00,
2013-04-18 04:43:00,36.0,35.0,29.67,ENE,67,3.0,10.0,98,0.00,,,0.13,,2013-04-18 09:43:00,
2013-04-18 04:53:00,36.0,35.0,29.67,ENE,67,3.0,10.0,98,0.00,,,0.13,,2013-04-18 09:53:00,
2013-04-18 05:03:00,36.0,35.0,29.66,North,9,4.0,10.0,98,0.00,,,0.13,,2013-04-18 10:03:00,
2013-04-18 05:12:00,36.0,35.0,29.66,North,9,4.0,10.0,98,0.00,,,0.13,,2013-04-18 10:12:00,
2013-04-18 05:23:00,36.0,35.0,29.65,NE,55,5.0,10.0,98,0.00,,,0.13,,2013-04-18 10:23:00,
2013-04-18 05:32:00,36.0,35.0,29.64,NE,53,6.0,11.0,98,0.00,,,0.13,,2013-04-18 10:32:00,
2013-04-18 05:42:00,36.0,35.0,29.64,NE,53,6.0,11.0,98,0.00,,,0.13,,2013-04-18 10:42:00,
2013-04-18 05:52:00,36.0,35.0,29.64,ENE,68,5.0,10.0,98,0.00,,,0.13,,2013-04-18 10:52:00,
2013-04-18 06:02:00,36.0,35.0,29.63,ENE,61,5.0,12.0,98,0.01,,,0.14,,2013-04-18 11:02:00,
2013-04-18 06:12:00,36.0,35.0,29.62,ENE,65,4.0,10.0,98,0.01,,,0.14,,2013-04-18 11:12:00,
2013-04-18 06:22:00,36.0,35.0,29.62,ENE,65,4.0,10.0,98,0.01,,,0.14,,2013-04-18 11:22:00,
2013-04-18 06:32:00,36.0,35.0,29.62,NE,38,2.0,8.0,98,0.02,,,0.15,,2013-04-18 11:32:00,
2013-04-18 06:42:00,36.0,35.0,29.62,NE,38,2.0,8.0,98,0.02,,,0.15,,2013-04-18 11:42:00,
2013-04-18 06:52:00,36.0,35.0,29.63,ENE,64,2.0,5.0,98,0.05,,,0.18,,2013-04-18 11:52:00,
2013-04-18 07:02:00,36.0,35.0,29.64,NNW,336,2.0,6.0,98,0.06,,,0.20,,2013-04-18 12:02:00,
2013-04-18 07:12:00,36.0,35.0,29.64,NNW,336,2.0,6.0,98,0.06,,,0.20,,2013-04-18 12:12:00,
2013-04-18 07:22:00,36.0,35.0,29.63,NE,51,2.0,9.0,98,0.07,,,0.21,,2013-04-18 12:22:00,
2013-04-18 07:32:00,36.0,35.0,29.63,NE,34,2.0,4.0,98,0.07,,,0.22,,2013-04-18 12:32:00,
2013-04-18 07:42:00,36.0,35.0,29.63,NE,34,2.0,4.0,98,0.07,,,0.22,,2013-04-18 12:42:00,
2013-04-18 07:52:00,36.0,35.0,29.63,ENE,59,4.0,7.0,98,0.04,,,0.22,,2013-04-18 12:52:00,
2013-04-18 08:02:00,36.0,35.0,29.62,ENE,75,5.0,10.0,98,0.03,,,0.23,,2013-04-18 13:02:00,
2013-04-18 08:12:00,36.0,35.0,29.62,ENE,75,5.0,10.0,98,0.03,,,0.23,,2013-04-18 13:12:00,
2013-04-18 08:22:00,36.0,36.0,29.62,NE,38,3.0,6.0,99,0.02,,,0.23,,2013-04-18 13:22:00,
2013-04-18 08:32:00,36.0,36.0,29.63,NE,47,2.0,7.0,99,0.02,,,0.24,,2013-04-18 13:32:00,
2013-04-18 08:42:00,36.0,36.0,29.64,NNW,336,3.0,5.0,99,0.02,,,0.24,,2013-04-18 13:42:00,
2013-04-18 08:53:00,36.0,36.0,29.64,NNW,336,3.0,5.0,99,0.02,,,0.24,,2013-04-18 13:53:00,
2013-04-18 09:02:00,36.0,35.0,29.63,North,351,4.0,6.0,98,0.02,,,0.25,,2013-04-18 14:02:00,
2013-04-18 09:12:00,36.0,35.0,29.62,North,355,2.0,5.0,98,0.02,,,0.25,,2013-04-18 14:12:00,
2013-04-18 09:22:00,36.0,35.0,29.62,North,355,2.0,5.0,98,0.02,,,0.25,,2013-04-18 14:22:00,
2013-04-18 09:32:00,36.0,35.0,29.58,NNE,15,5.0,9.0,98,0.01,,,0.25,,2013-04-18 14:32:00,
2013-04-18 09:42:00,36.0,35.0,29.58,NNE,15,5.0,9.0,98,0.01,,,0.25,,2013-04-18 14:42:00,
2013-04-18 09:52:00,36.0,35.0,29.54,ENE,59,6.0,11.0,98,0.01,,,0.25,,2013-04-18 14:52:00,
2013-04-18 10:02:00,36.0,35.0,29.51,NE,44,10.0,16.0,98,0.00,,,0.25,,2013-04-18 15:02:00,
2013-04-18 10:12:00,36.0,35.0,29.51,NE,44,10.0,16.0,98,0.00,,,0.25,,2013-04-18 15:12:00,
2013-04-18 10:22:00,37.0,36.0,29.47,ENE,67,5.0,18.0,98,0.00,,,0.25,,2013-04-18 15:22:00,
2013-04-18 10:33:00,37.0,36.0,29.51,ENE,61,6.0,14.0,97,0.00,,,0.25,,2013-04-18 15:33:00,
2013-04-18 10:42:00,37.0,36.0,29.56,NNE,20,1.0,4.0,97,0.00,,,0.25,,2013-04-18 15:42:00,
2013-04-18 10:53:00,37.0,36.0,29.56,NNE,20,1.0,4.0,97,0.00,,,0.25,,2013-04-18 15:53:00,
2013-04-18 11:03:00,37.0,36.0,29.55,NNE,26,2.0,4.0,97,0.00,,,0.25,,2013-04-18 16:03:00,
2013-04-18 11:13:00,37.0,36.0,29.54,NNE,26,3.0,6.0,96,0.00,,,0.25,,2013-04-18 16:13:00,
2013-04-18 11:23:00,37.0,36.0,29.54,NNE,26,3.0,6.0,96,0.00,,,0.25,,2013-04-18 16:23:00,
2013-04-18 11:33:00,37.0,36.0,29.53,North,349,3.0,7.0,96,0.00,,,0.25,,2013-04-18 16:33:00,
2013-04-18 11:43:00,37.0,36.0,29.53,NNE,24,4.0,7.0,96,0.00,,,0.25,,2013-04-18 16:43:00,
2013-04-18 11:53:00,37.0,36.0,29.53,NNE,24,4.0,7.0,96,0.00,,,0.25,,2013-04-18 16:53:00,
2013-04-18 12:02:00,38.0,37.0,29.56,North,360,1.0,6.0,95,0.00,,,0.25,,2013-04-18 17:02:00,
2013-04-18 12:12:00,38.0,37.0,29.56,North,360,1.0,6.0,95,0.00,,,0.25,,2013-04-18 17:12:00,
2013-04-18 12:22:00,37.0,36.0,29.56,NNW,348,2.0,7.0,95,0.00,,,0.25,,2013-04-18 17:22:00,
2013-04-18 12:33:00,37.0,36.0,29.55,ENE,58,3.0,6.0,95,0.00,,,0.25,,2013-04-18 17:33:00,
2013-04-18 12:42:00,37.0,36.0,29.54,NE,51,3.0,7.0,95,0.00,,,0.25,,2013-04-18 17:42:00,
2013-04-18 12:52:00,37.0,36.0,29.54,NE,51,3.0,7.0,95,0.00,,,0.25,,2013-04-18 17:52:00,
2013-04-18 13:02:00,37.0,36.0,29.52,NNE,32,5.0,11.0,95,0.00,,,0.25,,2013-04-18 18:02:00,
2013-04-18 13:12:00,38.0,37.0,29.52,NE,46,5.0,13.0,95,0.00,,,0.25,,2013-04-18 18:12:00,
2013-04-18 13:22:00,38.0,37.0,29.52,NE,46,5.0,13.0,95,0.00,,,0.25,,2013-04-18 18:22:00,
2013-04-18 13:32:00,38.0,37.0,29.51,NNE,32,5.0,11.0,95,0.00,,,0.25,,2013-04-18 18:32:00,
2013-04-18 13:42:00,38.0,37.0,29.51,NNE,32,5.0,11.0,95,0.00,,,0.25,,2013-04-18 18:42:00,
2013-04-18 13:52:00,38.0,37.0,29.52,ENE,69,5.0,10.0,95,0.00,,,0.25,,2013-04-18 18:52:00,
2013-04-18 14:02:00,38.0,37.0,29.52,NE,52,4.0,8.0,95,0.00,,,0.25,,2013-04-18 19:02:00,
2013-04-18 14:12:00,38.0,37.0,29.52,NE,52,4.0,8.0,95,0.00,,,0.25,,2013-04-18 19:12:00,
2013-04-18 14:22:00,38.0,37.0,29.51,NE,37,5.0,11.0,95,0.00,,,0.24,,2013-04-18 19:22:00,
2013-04-18 14:32:00,38.0,37.0,29.49,ENE,63,4.0,10.0,96,0.00,,,0.24,,2013-04-18 19:32:00,
2013-04-18 14:42:00,38.0,37.0,29.49,ENE,63,4.0,10.0,96,0.00,,,0.24,,2013-04-18 19:42:00,
2013-04-18 14:53:00,38.0,37.0,29.47,East,88,5.0,10.0,96,0.00,,,0.24,,2013-04-18 19:53:00,
2013-04-18 15:02:00,38.0,37.0,29.46,ENE,60,5.0,11.0,96,0.00,,,0.24,,2013-04-18 20:02:00,
2013-04-18 15:12:00,38.0,37.0,29.46,ENE,60,5.0,11.0,96,0.00,,,0.24,,2013-04-18 20:12:00,
2013-04-18 15:22:00,38.0,37.0,29.44,ENE,67,7.0,12.0,97,0.00,,,0.23,,2013-04-18 20:22:00,
2013-04-18 15:32:00,38.0,37.0,29.42,NNE,20,8.0,12.0,97,0.01,,,0.24,,2013-04-18 20:32:00,
2013-04-18 15:42:00,38.0,37.0,29.41,ENE,59,6.0,15.0,97,0.01,,,0.24,,2013-04-18 20:42:00,
2013-04-18 15:52:00,38.0,37.0,29.41,ENE,59,6.0,15.0,97,0.01,,,0.24,,2013-04-18 20:52:00,
2013-04-18 16:02:00,38.0,37.0,29.41,ENE,69,4.0,8.0,97,0.01,,,0.24,,2013-04-18 21:02:00,
2013-04-18 16:12:00,38.0,37.0,29.41,ENE,69,4.0,8.0,97,0.01,,,0.24,,2013-04-18 21:12:00,
2013-04-18 16:22:00,38.0,37.0,29.39,ENE,66,8.0,14.0,97,0.01,,,0.24,,2013-04-18 21:22:00,
2013-04-18 16:32:00,38.0,37.0,29.38,East,86,6.0,13.0,97,0.00,,,0.24,,2013-04-18 21:32:00,
2013-04-18 16:43:00,38.0,37.0,29.36,East,98,6.0,13.0,98,0.00,,,0.24,,2013-04-18 21:43:00,
2013-04-18 16:53:00,38.0,37.0,29.36,East,98,6.0,13.0,98,0.00,,,0.24,,2013-04-18 21:53:00,
2013-04-18 17:02:00,38.0,37.0,29.35,ENE,58,8.0,11.0,98,0.01,,,0.25,,2013-04-18 22:02:00,
2013-04-18 17:13:00,38.0,37.0,29.34,East,88,5.0,15.0,98,0.04,,,0.28,,2013-04-18 22:13:00,
2013-04-18 17:22:00,38.0,37.0,29.34,East,88,5.0,15.0,98,0.04,,,0.28,,2013-04-18 22:22:00,
2013-04-18 17:32:00,38.0,37.0,29.33,East,79,4.0,11.0,98,0.04,,,0.28,,2013-04-18 22:32:00,
2013-04-18 17:42:00,39.0,38.0,29.32,ENE,74,6.0,15.0,98,0.05,,,0.29,,2013-04-18 22:42:00,
2013-04-18 17:52:00,39.0,38.0,29.32,ENE,74,6.0,15.0,98,0.05,,,0.29,,2013-04-18 22:52:00,
2013-04-18 18:03:00,39.0,38.0,29.31,ENE,73,4.0,14.0,98,0.05,,,0.30,,2013-04-18 23:03:00,
2013-04-18 18:11:00,39.0,38.0,29.30,ENE,76,5.0,11.0,98,0.04,,,0.32,,2013-04-18 23:11:00,
2013-04-18 18:21:00,39.0,38.0,29.30,ENE,76,5.0,11.0,98,0.04,,,0.32,,2013-04-18 23:21:00,
2013-04-18 18:32:00,39.0,38.0,29.28,ESE,115,3.0,8.0,98,0.05,,,0.33,,2013-04-18 23:32:00,
2013-04-18 18:42:00,39.0,38.0,29.27,ENE,76,5.0,10.0,98,0.05,,,0.34,,2013-04-18 23:42:00,
2013-04-18 18:52:00,39.0,38.0,29.27,ENE,76,5.0,10.0,98,0.05,,,0.34,,2013-04-18 23:52:00,
2013-04-18 19:01:00,39.0,38.0,29.27,East,92,5.0,9.0,98,0.04,,,0.34,,2013-04-19 00:01:00,
2013-04-18 19:12:00,39.0,38.0,29.27,East,92,5.0,9.0,98,0.04,,,0.34,,2013-04-19 00:12:00,
2013-04-18 19:22:00,39.0,38.0,29.26,East,79,3.0,9.0,98,0.03,,,0.35,,2013-04-19 00:22:00,
2013-04-18 19:32:00,39.0,38.0,29.27,WSW,242,0.0,5.0,98,0.03,,,0.36,,2013-04-19 00:32:00,
2013-04-18 19:42:00,39.0,38.0,29.27,WSW,242,0.0,5.0,98,0.03,,,0.36,,2013-04-19 00:42:00,
2013-04-18 19:52:00,39.0,38.0,29.28,West,269,2.0,3.0,98,0.04,,,0.38,,2013-04-19 00:52:00,
2013-04-18 20:01:00,39.0,38.0,29.27,North,360,0.0,3.0,98,0.07,,,0.41,,2013-04-19 01:01:00,
2013-04-18 20:11:00,39.0,38.0,29.27,North,360,0.0,3.0,98,0.07,,,0.41,,2013-04-19 01:11:00,
2013-04-18 20:21:00,39.0,38.0,29.26,North,360,0.0,2.0,98,0.07,,,0.42,,2013-04-19 01:21:00,
2013-04-18 20:31:00,38.0,37.0,29.26,North,360,1.0,3.0,98,0.07,,,0.43,,2013-04-19 01:31:00,
2013-04-18 20:42:00,38.0,37.0,29.26,North,360,1.0,3.0,98,0.07,,,0.43,,2013-04-19 01:42:00,
2013-04-18 20:52:00,38.0,37.0,29.26,North,360,1.0,3.0,98,0.06,,,0.44,,2013-04-19 01:52:00,
2013-04-18 21:01:00,38.0,38.0,29.27,NNW,342,2.0,4.0,99,0.03,,,0.44,,2013-04-19 02:01:00,
2013-04-18 21:11:00,38.0,38.0,29.27,NNW,342,2.0,4.0,99,0.03,,,0.44,,2013-04-19 02:11:00,
2013-04-18 21:21:00,38.0,37.0,29.26,NNW,338,0.0,4.0,98,0.03,,,0.45,,2013-04-19 02:21:00,
2013-04-18 21:32:00,38.0,37.0,29.26,NNW,338,1.0,3.0,98,0.03,,,0.46,,2013-04-19 02:32:00,
2013-04-18 21:42:00,38.0,37.0,29.26,NNW,338,1.0,3.0,98,0.03,,,0.46,,2013-04-19 02:42:00,
2013-04-18 21:52:00,38.0,38.0,29.26,NNW,339,1.0,3.0,99,0.02,,,0.46,,2013-04-19 02:52:00,
2013-04-18 22:01:00,38.0,38.0,29.26,NNW,339,0.0,2.0,99,0.01,,,0.46,,2013-04-19 03:01:00,
2013-04-18 22:11:00,38.0,38.0,29.26,NNW,339,0.0,2.0,99,0.01,,,0.46,,2013-04-19 03:11:00,
2013-04-18 22:21:00,38.0,38.0,29.25,NNW,339,0.0,2.0,99,0.01,,,0.46,,2013-04-19 03:21:00,
2013-04-18 22:33:00,37.0,37.0,29.25,NNW,339,0.0,0.0,99,0.00,,,0.46,,2013-04-19 03:33:00,
2013-04-18 22:43:00,37.0,37.0,29.25,NNW,339,0.0,0.0,99,0.00,,,0.46,,2013-04-19 03:43:00,
2013-04-18 22:53:00,37.0,37.0,29.24,NNW,339,0.0,0.0,99,0.01,,,0.47,,2013-04-19 03:53:00,
2013-04-18 23:03:00,37.0,37.0,29.22,West,269,0.0,4.0,99,0.01,,,0.47,,2013-04-19 04:03:00,
2013-04-18 23:13:00,37.0,37.0,29.22,West,269,0.0,4.0,99,0.01,,,0.47,,2013-04-19 04:13:00,
2013-04-18 23:23:00,37.0,37.0,29.21,West,261,2.0,4.0,99,0.01,,,0.47,,2013-04-19 04:23:00,
2013-04-18 23:33:00,37.0,37.0,29.21,WSW,255,2.0,6.0,99,0.01,,,0.47,,2013-04-19 04:33:00,
2013-04-18 23:43:00,36.0,36.0,29.22,WSW,241,4.0,9.0,99,0.00,,,0.47,,2013-04-19 04:43:00,
2013-04-18 23:52:00,36.0,36.0,29.22,WSW,241,4.0,9.0,99,0.00,,,0.47,,2013-04-19 04:52:00,